contact:dominique.lefevre@mio.osupytheas.fr, maurice.libes@osupytheas.fr, didier.mallarino@osupytheas.fr
Project:EMSO http://www.emso-fr.org/EMSO-France
Depth: 2436.0 m
Title:EMSO Ligure Ouest : Data MII capteur MICROCAT
DateTime_Computer,Latitude,Longitude,Temperature,Conductivity,Pressure,DateTime_Instrument
DateTime_Computer,Latitude,Longitude,degC,S m-1,dbar,DateTime_Instrument
2021-12-30T00:00:59Z,42.805,6.029,13.2999,4.60019,2469.76,2021-12-30T02:02:28Z
2021-12-30T00:04:02Z,42.805,6.029,13.2998,4.60018,2469.75,2021-12-30T02:05:31Z
2021-12-30T00:07:05Z,42.805,6.029,13.2993,4.60019,2469.713,2021-12-30T02:08:35Z
2021-12-30T00:10:08Z,42.805,6.029,13.2999,4.60019,2469.76,2021-12-30T02:11:38Z
2021-12-30T00:13:11Z,42.805,6.029,13.3001,4.60019,2469.737,2021-12-30T02:14:41Z
2021-12-30T00:16:14Z,42.805,6.029,13.2998,4.60021,2469.75,2021-12-30T02:17:44Z
2021-12-30T00:19:17Z,42.805,6.029,13.2997,4.60021,2469.737,2021-12-30T02:20:47Z
2021-12-30T00:22:21Z,42.805,6.029,13.2998,4.60019,2469.737,2021-12-30T02:23:50Z
2021-12-30T00:25:24Z,42.805,6.029,13.2997,4.60017,2469.76,2021-12-30T02:26:53Z
2021-12-30T00:28:27Z,42.805,6.029,13.2997,4.60019,2469.773,2021-12-30T02:29:56Z
2021-12-30T00:31:30Z,42.805,6.029,13.2993,4.60021,2469.76,2021-12-30T02:33:00Z
2021-12-30T00:34:33Z,42.805,6.029,13.2993,4.60017,2469.797,2021-12-30T02:36:03Z
2021-12-30T00:37:36Z,42.805,6.029,13.2996,4.60018,2469.76,2021-12-30T02:39:06Z
2021-12-30T00:40:39Z,42.805,6.029,13.2994,4.60020,2469.797,2021-12-30T02:42:09Z
2021-12-30T00:43:42Z,42.805,6.029,13.2995,4.60019,2469.783,2021-12-30T02:45:12Z
2021-12-30T00:46:45Z,42.805,6.029,13.2996,4.60017,2469.797,2021-12-30T02:48:15Z
2021-12-30T00:49:49Z,42.805,6.029,13.2998,4.60018,2469.783,2021-12-30T02:51:18Z
2021-12-30T00:52:52Z,42.805,6.029,13.2995,4.60019,2469.76,2021-12-30T02:54:21Z
2021-12-30T00:55:55Z,42.805,6.029,13.2996,4.60017,2469.797,2021-12-30T02:57:25Z
2021-12-30T00:58:58Z,42.805,6.029,13.2998,4.60019,2469.783,2021-12-30T03:00:28Z
2021-12-30T01:02:01Z,42.805,6.029,13.2998,4.60017,2469.783,2021-12-30T03:03:31Z
2021-12-30T01:05:04Z,42.805,6.029,13.2996,4.60019,2469.806,2021-12-30T03:06:34Z
2021-12-30T01:08:07Z,42.805,6.029,13.3000,4.60018,2469.797,2021-12-30T03:09:37Z
2021-12-30T01:11:10Z,42.805,6.029,13.3002,4.60019,2469.806,2021-12-30T03:12:40Z
2021-12-30T01:14:14Z,42.805,6.029,13.2993,4.60019,2469.806,2021-12-30T03:15:43Z
2021-12-30T01:17:17Z,42.805,6.029,13.2999,4.60018,2469.783,2021-12-30T03:18:46Z
2021-12-30T01:20:20Z,42.805,6.029,13.2993,4.60018,2469.83,2021-12-30T03:21:49Z
2021-12-30T01:23:23Z,42.805,6.029,13.2991,4.60018,2469.821,2021-12-30T03:24:53Z
2021-12-30T01:26:26Z,42.805,6.029,13.2999,4.60019,2469.83,2021-12-30T03:27:56Z
2021-12-30T01:29:29Z,42.805,6.029,13.2996,4.60021,2469.844,2021-12-30T03:30:59Z
2021-12-30T01:32:32Z,42.805,6.029,13.2996,4.60019,2469.876,2021-12-30T03:34:02Z
2021-12-30T01:35:35Z,42.805,6.029,13.2998,4.60019,2469.876,2021-12-30T03:37:05Z
2021-12-30T01:38:39Z,42.805,6.029,13.2993,4.60019,2469.853,2021-12-30T03:40:08Z
2021-12-30T01:41:42Z,42.805,6.029,13.2998,4.60017,2469.853,2021-12-30T03:43:11Z
2021-12-30T01:44:45Z,42.805,6.029,13.2998,4.60019,2469.867,2021-12-30T03:46:14Z
2021-12-30T01:47:48Z,42.805,6.029,13.2995,4.60019,2469.853,2021-12-30T03:49:18Z
2021-12-30T01:50:51Z,42.805,6.029,13.2998,4.60019,2469.876,2021-12-30T03:52:21Z
2021-12-30T01:53:54Z,42.805,6.029,13.2998,4.60022,2469.83,2021-12-30T03:55:24Z
2021-12-30T01:56:57Z,42.805,6.029,13.2995,4.60017,2469.876,2021-12-30T03:58:27Z
2021-12-30T02:00:00Z,42.805,6.029,13.2993,4.60017,2469.876,2021-12-30T04:01:30Z
2021-12-30T02:03:04Z,42.805,6.029,13.2998,4.60019,2469.853,2021-12-30T04:04:33Z
2021-12-30T02:06:07Z,42.805,6.029,13.2998,4.60023,2469.876,2021-12-30T04:07:36Z
2021-12-30T02:09:10Z,42.805,6.029,13.2996,4.60018,2469.867,2021-12-30T04:10:39Z
2021-12-30T02:12:13Z,42.805,6.029,13.2995,4.60019,2469.867,2021-12-30T04:13:43Z
2021-12-30T02:15:16Z,42.805,6.029,13.2996,4.60020,2469.876,2021-12-30T04:16:46Z
2021-12-30T02:18:19Z,42.805,6.029,13.3000,4.60019,2469.876,2021-12-30T04:19:49Z
2021-12-30T02:21:22Z,42.805,6.029,13.2997,4.60019,2469.89,2021-12-30T04:22:52Z
2021-12-30T02:24:25Z,42.805,6.029,13.2997,4.60019,2469.89,2021-12-30T04:25:55Z
2021-12-30T02:27:29Z,42.805,6.029,13.2996,4.60019,2469.876,2021-12-30T04:28:58Z
2021-12-30T02:30:32Z,42.805,6.029,13.2997,4.60019,2469.876,2021-12-30T04:32:01Z
2021-12-30T02:33:35Z,42.805,6.029,13.2998,4.60018,2469.853,2021-12-30T04:35:04Z
2021-12-30T02:36:38Z,42.805,6.029,13.2995,4.60018,2469.853,2021-12-30T04:38:08Z
2021-12-30T02:39:41Z,42.805,6.029,13.2992,4.60019,2469.9,2021-12-30T04:41:11Z
2021-12-30T02:42:44Z,42.805,6.029,13.2994,4.60020,2469.914,2021-12-30T04:44:14Z
2021-12-30T02:45:47Z,42.805,6.029,13.2996,4.60019,2469.853,2021-12-30T04:47:17Z
2021-12-30T02:48:50Z,42.805,6.029,13.2996,4.60019,2469.876,2021-12-30T04:50:20Z
2021-12-30T02:51:54Z,42.805,6.029,13.2995,4.60019,2469.923,2021-12-30T04:53:23Z
2021-12-30T02:54:57Z,42.805,6.029,13.3000,4.60021,2469.876,2021-12-30T04:56:26Z
2021-12-30T02:58:00Z,42.805,6.029,13.2995,4.60025,2469.876,2021-12-30T04:59:29Z
2021-12-30T03:01:03Z,42.805,6.029,13.2996,4.60019,2469.9,2021-12-30T05:02:33Z
2021-12-30T03:04:06Z,42.805,6.029,13.2996,4.60022,2469.853,2021-12-30T05:05:36Z
2021-12-30T03:07:09Z,42.805,6.029,13.2994,4.60020,2469.876,2021-12-30T05:08:39Z
2021-12-30T03:10:12Z,42.805,6.029,13.2999,4.60019,2469.89,2021-12-30T05:11:42Z
2021-12-30T03:13:15Z,42.805,6.029,13.2994,4.60020,2469.923,2021-12-30T05:14:45Z
2021-12-30T03:16:19Z,42.805,6.029,13.2998,4.60018,2469.9,2021-12-30T05:17:48Z
2021-12-30T03:19:22Z,42.805,6.029,13.2994,4.60019,2469.914,2021-12-30T05:20:51Z
2021-12-30T03:22:25Z,42.805,6.029,13.2996,4.60019,2469.876,2021-12-30T05:23:54Z
2021-12-30T03:25:28Z,42.805,6.029,13.2996,4.60019,2469.876,2021-12-30T05:26:58Z
2021-12-30T03:28:31Z,42.805,6.029,13.2996,4.60019,2469.914,2021-12-30T05:30:01Z
2021-12-30T03:31:34Z,42.805,6.029,13.2994,4.60018,2469.914,2021-12-30T05:33:04Z
2021-12-30T03:34:37Z,42.805,6.029,13.2996,4.60019,2469.876,2021-12-30T05:36:07Z
2021-12-30T03:37:40Z,42.805,6.029,13.2996,4.60017,2469.923,2021-12-30T05:39:10Z
2021-12-30T03:40:44Z,42.805,6.029,13.2994,4.60019,2469.89,2021-12-30T05:42:13Z
2021-12-30T03:43:47Z,42.805,6.029,13.2996,4.60019,2469.9,2021-12-30T05:45:16Z
2021-12-30T03:46:50Z,42.805,6.029,13.2998,4.60021,2469.9,2021-12-30T05:48:19Z
2021-12-30T03:49:53Z,42.805,6.029,13.2998,4.60019,2469.876,2021-12-30T05:51:23Z
2021-12-30T03:52:56Z,42.805,6.029,13.2998,4.60017,2469.923,2021-12-30T05:54:26Z
2021-12-30T03:55:59Z,42.805,6.029,13.2995,4.60019,2469.9,2021-12-30T05:57:29Z
2021-12-30T03:59:02Z,42.805,6.029,13.2997,4.60019,2469.876,2021-12-30T06:00:32Z
2021-12-30T04:02:05Z,42.805,6.029,13.2996,4.60019,2469.923,2021-12-30T06:03:35Z
2021-12-30T04:05:09Z,42.805,6.029,13.2995,4.60020,2469.876,2021-12-30T06:06:38Z
2021-12-30T04:08:12Z,42.805,6.029,13.2993,4.60019,2469.89,2021-12-30T06:09:41Z
2021-12-30T04:11:15Z,42.805,6.029,13.3000,4.60019,2469.876,2021-12-30T06:12:44Z
2021-12-30T04:14:18Z,42.805,6.029,13.3000,4.60020,2469.876,2021-12-30T06:15:48Z
2021-12-30T04:17:21Z,42.805,6.029,13.2994,4.60021,2469.9,2021-12-30T06:18:51Z
2021-12-30T04:20:24Z,42.805,6.029,13.2998,4.60020,2469.9,2021-12-30T06:21:54Z
2021-12-30T04:23:27Z,42.805,6.029,13.2995,4.60019,2469.876,2021-12-30T06:24:57Z
2021-12-30T04:26:30Z,42.805,6.029,13.2996,4.60019,2469.876,2021-12-30T06:28:00Z
2021-12-30T04:29:34Z,42.805,6.029,13.3000,4.60019,2469.89,2021-12-30T06:31:03Z
2021-12-30T04:32:37Z,42.805,6.029,13.2999,4.60021,2469.9,2021-12-30T06:34:06Z
2021-12-30T04:35:40Z,42.805,6.029,13.2999,4.60021,2469.927,2021-12-30T06:37:09Z
2021-12-30T04:38:43Z,42.805,6.029,13.3000,4.60024,2469.89,2021-12-30T06:40:13Z
2021-12-30T04:41:46Z,42.805,6.029,13.2999,4.60019,2469.914,2021-12-30T06:43:16Z
2021-12-30T04:44:49Z,42.805,6.029,13.2994,4.60025,2469.914,2021-12-30T06:46:19Z
2021-12-30T04:47:52Z,42.805,6.029,13.2996,4.60021,2469.9,2021-12-30T06:49:22Z
2021-12-30T04:50:55Z,42.805,6.029,13.2996,4.60019,2469.89,2021-12-30T06:52:25Z
2021-12-30T04:53:58Z,42.805,6.029,13.2996,4.60021,2469.853,2021-12-30T06:55:28Z
2021-12-30T04:57:02Z,42.805,6.029,13.3001,4.60021,2469.914,2021-12-30T06:58:31Z
2021-12-30T05:00:05Z,42.805,6.029,13.2993,4.60019,2469.853,2021-12-30T07:01:34Z
2021-12-30T05:03:08Z,42.805,6.029,13.3000,4.60020,2469.914,2021-12-30T07:04:38Z
2021-12-30T05:06:11Z,42.805,6.029,13.2998,4.60022,2469.9,2021-12-30T07:07:41Z
2021-12-30T05:09:14Z,42.805,6.029,13.2993,4.60021,2469.9,2021-12-30T07:10:44Z
2021-12-30T05:12:17Z,42.805,6.029,13.2998,4.60022,2469.89,2021-12-30T07:13:47Z
2021-12-30T05:15:20Z,42.805,6.029,13.2996,4.60020,2469.914,2021-12-30T07:16:50Z
2021-12-30T05:18:24Z,42.805,6.029,13.2998,4.60019,2469.886,2021-12-30T07:19:53Z
2021-12-30T05:21:27Z,42.805,6.029,13.2998,4.60019,2469.876,2021-12-30T07:22:56Z
2021-12-30T05:24:30Z,42.805,6.029,13.2999,4.60020,2469.89,2021-12-30T07:25:59Z
2021-12-30T05:27:33Z,42.805,6.029,13.2999,4.60021,2469.876,2021-12-30T07:29:03Z
2021-12-30T05:30:36Z,42.805,6.029,13.2996,4.60019,2469.9,2021-12-30T07:32:06Z
2021-12-30T05:33:39Z,42.805,6.029,13.2996,4.60019,2469.876,2021-12-30T07:35:09Z
2021-12-30T05:36:42Z,42.805,6.029,13.2996,4.60024,2469.876,2021-12-30T07:38:12Z
2021-12-30T05:39:45Z,42.805,6.029,13.2997,4.60024,2469.914,2021-12-30T07:41:15Z
2021-12-30T05:42:48Z,42.805,6.029,13.2999,4.60019,2469.867,2021-12-30T07:44:18Z
2021-12-30T05:45:52Z,42.805,6.029,13.2998,4.60019,2469.876,2021-12-30T07:47:21Z
2021-12-30T05:48:55Z,42.805,6.029,13.2998,4.60021,2469.876,2021-12-30T07:50:24Z
2021-12-30T05:51:58Z,42.805,6.029,13.2998,4.60019,2469.853,2021-12-30T07:53:28Z
2021-12-30T05:55:01Z,42.805,6.029,13.2996,4.60019,2469.876,2021-12-30T07:56:31Z
2021-12-30T05:58:04Z,42.805,6.029,13.2998,4.60019,2469.876,2021-12-30T07:59:34Z
2021-12-30T06:01:07Z,42.805,6.029,13.3000,4.60024,2469.876,2021-12-30T08:02:37Z
2021-12-30T06:04:10Z,42.805,6.029,13.2998,4.60020,2469.876,2021-12-30T08:05:40Z
2021-12-30T06:07:13Z,42.805,6.029,13.3001,4.60019,2469.876,2021-12-30T08:08:43Z
2021-12-30T06:10:17Z,42.805,6.029,13.2996,4.60019,2469.89,2021-12-30T08:11:46Z
2021-12-30T06:13:20Z,42.805,6.029,13.2994,4.60025,2469.89,2021-12-30T08:14:49Z
2021-12-30T06:16:23Z,42.805,6.029,13.2998,4.60019,2469.853,2021-12-30T08:17:53Z
2021-12-30T06:19:26Z,42.805,6.029,13.3001,4.60019,2469.89,2021-12-30T08:20:56Z
2021-12-30T06:22:29Z,42.805,6.029,13.3000,4.60020,2469.876,2021-12-30T08:23:59Z
2021-12-30T06:25:32Z,42.805,6.029,13.2996,4.60022,2469.853,2021-12-30T08:27:02Z
2021-12-30T06:28:35Z,42.805,6.029,13.2999,4.60019,2469.853,2021-12-30T08:30:05Z
2021-12-30T06:31:38Z,42.805,6.029,13.2995,4.60020,2469.83,2021-12-30T08:33:08Z
2021-12-30T06:34:42Z,42.805,6.029,13.2998,4.60021,2469.853,2021-12-30T08:36:11Z
2021-12-30T06:37:45Z,42.805,6.029,13.2995,4.60020,2469.853,2021-12-30T08:39:14Z
2021-12-30T06:40:48Z,42.805,6.029,13.2996,4.60019,2469.853,2021-12-30T08:42:18Z
2021-12-30T06:43:51Z,42.805,6.029,13.2999,4.60019,2469.867,2021-12-30T08:45:21Z
2021-12-30T06:46:54Z,42.805,6.029,13.2997,4.60019,2469.853,2021-12-30T08:48:24Z
2021-12-30T06:49:57Z,42.805,6.029,13.3000,4.60019,2469.853,2021-12-30T08:51:27Z
2021-12-30T06:53:00Z,42.805,6.029,13.2994,4.60019,2469.867,2021-12-30T08:54:30Z
2021-12-30T06:56:03Z,42.805,6.029,13.3000,4.60021,2469.844,2021-12-30T08:57:33Z
2021-12-30T06:59:07Z,42.805,6.029,13.2997,4.60019,2469.83,2021-12-30T09:00:36Z
2021-12-30T07:02:10Z,42.805,6.029,13.2998,4.60023,2469.853,2021-12-30T09:03:39Z
2021-12-30T07:05:13Z,42.805,6.029,13.2996,4.60019,2469.83,2021-12-30T09:06:43Z
2021-12-30T07:08:16Z,42.805,6.029,13.3000,4.60021,2469.83,2021-12-30T09:09:46Z
2021-12-30T07:11:19Z,42.805,6.029,13.2996,4.60020,2469.83,2021-12-30T09:12:49Z
2021-12-30T07:14:22Z,42.805,6.029,13.2998,4.60019,2469.83,2021-12-30T09:15:52Z
2021-12-30T07:17:25Z,42.805,6.029,13.2995,4.60019,2469.844,2021-12-30T09:18:55Z
2021-12-30T07:20:28Z,42.805,6.029,13.2996,4.60020,2469.867,2021-12-30T09:21:58Z
2021-12-30T07:23:32Z,42.805,6.029,13.2998,4.60020,2469.821,2021-12-30T09:25:01Z
2021-12-30T07:26:35Z,42.805,6.029,13.2998,4.60020,2469.806,2021-12-30T09:28:04Z
2021-12-30T07:29:38Z,42.805,6.029,13.2996,4.60021,2469.821,2021-12-30T09:31:08Z
2021-12-30T07:32:41Z,42.805,6.029,13.2994,4.60019,2469.844,2021-12-30T09:34:11Z
2021-12-30T07:35:44Z,42.805,6.029,13.2996,4.60019,2469.806,2021-12-30T09:37:14Z
2021-12-30T07:38:47Z,42.805,6.029,13.2999,4.60019,2469.821,2021-12-30T09:40:17Z
2021-12-30T07:41:50Z,42.805,6.029,13.2993,4.60019,2469.806,2021-12-30T09:43:20Z
2021-12-30T07:44:53Z,42.805,6.029,13.2994,4.60019,2469.844,2021-12-30T09:46:23Z
2021-12-30T07:47:57Z,42.805,6.029,13.2998,4.60019,2469.783,2021-12-30T09:49:26Z
2021-12-30T07:51:00Z,42.805,6.029,13.2993,4.60019,2469.806,2021-12-30T09:52:29Z
2021-12-30T07:54:03Z,42.805,6.029,13.2998,4.60019,2469.783,2021-12-30T09:55:33Z
2021-12-30T07:57:06Z,42.805,6.029,13.2997,4.60021,2469.797,2021-12-30T09:58:36Z
2021-12-30T08:00:09Z,42.805,6.029,13.2996,4.60021,2469.806,2021-12-30T10:01:39Z
2021-12-30T08:03:12Z,42.805,6.029,13.2998,4.60019,2469.769,2021-12-30T10:04:42Z
2021-12-30T08:06:15Z,42.805,6.029,13.2996,4.60019,2469.76,2021-12-30T10:07:45Z
2021-12-30T08:09:18Z,42.805,6.029,13.2998,4.60019,2469.821,2021-12-30T10:10:48Z
2021-12-30T08:12:22Z,42.805,6.029,13.2999,4.60019,2469.844,2021-12-30T10:13:51Z
2021-12-30T08:15:25Z,42.805,6.029,13.2997,4.60019,2469.83,2021-12-30T10:16:54Z
2021-12-30T08:18:28Z,42.805,6.029,13.2995,4.60021,2469.797,2021-12-30T10:19:58Z
2021-12-30T08:21:31Z,42.805,6.029,13.2996,4.60019,2469.783,2021-12-30T10:23:01Z
2021-12-30T08:24:34Z,42.805,6.029,13.2997,4.60021,2469.797,2021-12-30T10:26:04Z
2021-12-30T08:27:37Z,42.805,6.029,13.2995,4.60019,2469.797,2021-12-30T10:29:07Z
2021-12-30T08:30:40Z,42.805,6.029,13.2993,4.60019,2469.773,2021-12-30T10:32:10Z
2021-12-30T08:33:43Z,42.805,6.029,13.2996,4.60021,2469.783,2021-12-30T10:35:13Z
2021-12-30T08:36:47Z,42.805,6.029,13.2994,4.60023,2469.76,2021-12-30T10:38:16Z
2021-12-30T08:39:50Z,42.805,6.029,13.2998,4.60019,2469.797,2021-12-30T10:41:19Z
2021-12-30T08:42:53Z,42.805,6.029,13.2992,4.60019,2469.806,2021-12-30T10:44:23Z
2021-12-30T08:45:56Z,42.805,6.029,13.2998,4.60019,2469.783,2021-12-30T10:47:26Z
2021-12-30T08:48:59Z,42.805,6.029,13.3000,4.60021,2469.783,2021-12-30T10:50:29Z
2021-12-30T08:52:02Z,42.805,6.029,13.2998,4.60019,2469.83,2021-12-30T10:53:32Z
2021-12-30T08:55:05Z,42.805,6.029,13.2998,4.60019,2469.797,2021-12-30T10:56:35Z
2021-12-30T08:58:08Z,42.805,6.029,13.2991,4.60021,2469.783,2021-12-30T10:59:38Z
2021-12-30T09:01:12Z,42.805,6.029,13.2996,4.60019,2469.76,2021-12-30T11:02:41Z
2021-12-30T09:04:15Z,42.805,6.029,13.2998,4.60019,2469.783,2021-12-30T11:05:44Z
2021-12-30T09:07:18Z,42.805,6.029,13.2998,4.60021,2469.783,2021-12-30T11:08:48Z
2021-12-30T09:10:21Z,42.805,6.029,13.2997,4.60022,2469.773,2021-12-30T11:11:51Z
2021-12-30T09:13:24Z,42.805,6.029,13.2996,4.60019,2469.783,2021-12-30T11:14:54Z
2021-12-30T09:16:27Z,42.805,6.029,13.3000,4.60020,2469.783,2021-12-30T11:17:57Z
2021-12-30T09:19:30Z,42.805,6.029,13.3000,4.60019,2469.76,2021-12-30T11:21:00Z
2021-12-30T09:22:33Z,42.805,6.029,13.2998,4.60019,2469.797,2021-12-30T11:24:03Z
2021-12-30T09:25:37Z,42.805,6.029,13.2996,4.60022,2469.76,2021-12-30T11:27:06Z
2021-12-30T09:28:40Z,42.805,6.029,13.2998,4.60019,2469.773,2021-12-30T11:30:09Z
2021-12-30T09:31:43Z,42.805,6.029,13.2997,4.60019,2469.76,2021-12-30T11:33:13Z
2021-12-30T09:34:46Z,42.805,6.029,13.2994,4.60019,2469.783,2021-12-30T11:36:16Z
2021-12-30T09:37:49Z,42.805,6.029,13.2996,4.60019,2469.76,2021-12-30T11:39:19Z
2021-12-30T09:40:52Z,42.805,6.029,13.2998,4.60019,2469.76,2021-12-30T11:42:22Z
2021-12-30T09:43:55Z,42.805,6.029,13.2996,4.60019,2469.76,2021-12-30T11:45:25Z
2021-12-30T09:46:59Z,42.805,6.029,13.2997,4.60019,2469.773,2021-12-30T11:48:28Z
2021-12-30T09:50:02Z,42.805,6.029,13.2996,4.60019,2469.76,2021-12-30T11:51:31Z
2021-12-30T09:53:05Z,42.805,6.029,13.2996,4.60018,2469.773,2021-12-30T11:54:34Z
2021-12-30T09:56:08Z,42.805,6.029,13.2999,4.60019,2469.75,2021-12-30T11:57:38Z
2021-12-30T09:59:11Z,42.805,6.029,13.2998,4.60019,2469.76,2021-12-30T12:00:41Z
2021-12-30T10:02:14Z,42.805,6.029,13.2996,4.60019,2469.76,2021-12-30T12:03:44Z
2021-12-30T10:05:17Z,42.805,6.029,13.3001,4.60019,2469.727,2021-12-30T12:06:47Z
2021-12-30T10:08:20Z,42.805,6.029,13.2993,4.60019,2469.773,2021-12-30T12:09:50Z
2021-12-30T10:11:24Z,42.805,6.029,13.3000,4.60019,2469.737,2021-12-30T12:12:53Z
2021-12-30T10:14:27Z,42.805,6.029,13.2998,4.60019,2469.773,2021-12-30T12:15:56Z
2021-12-30T10:17:30Z,42.805,6.029,13.2998,4.60020,2469.737,2021-12-30T12:18:59Z
2021-12-30T10:20:33Z,42.805,6.029,13.2997,4.60019,2469.769,2021-12-30T12:22:03Z
2021-12-30T10:23:36Z,42.805,6.029,13.2996,4.60018,2469.713,2021-12-30T12:25:06Z
2021-12-30T10:26:39Z,42.805,6.029,13.2996,4.60019,2469.773,2021-12-30T12:28:09Z
2021-12-30T10:29:42Z,42.805,6.029,13.2999,4.60019,2469.773,2021-12-30T12:31:12Z
2021-12-30T10:32:45Z,42.805,6.029,13.2995,4.60019,2469.76,2021-12-30T12:34:15Z
2021-12-30T10:35:49Z,42.805,6.029,13.2994,4.60021,2469.69,2021-12-30T12:37:18Z
2021-12-30T10:38:52Z,42.805,6.029,13.2995,4.60019,2469.713,2021-12-30T12:40:21Z
2021-12-30T10:41:55Z,42.805,6.029,13.3000,4.60021,2469.737,2021-12-30T12:43:25Z
2021-12-30T10:44:58Z,42.805,6.029,13.2996,4.60019,2469.713,2021-12-30T12:46:28Z
2021-12-30T10:48:01Z,42.805,6.029,13.2998,4.60017,2469.69,2021-12-30T12:49:31Z
2021-12-30T10:51:04Z,42.805,6.029,13.2998,4.60019,2469.69,2021-12-30T12:52:34Z
2021-12-30T10:54:07Z,42.805,6.029,13.2996,4.60020,2469.704,2021-12-30T12:55:37Z
2021-12-30T10:57:10Z,42.805,6.029,13.2996,4.60021,2469.727,2021-12-30T12:58:40Z
2021-12-30T11:00:14Z,42.805,6.029,13.2994,4.60019,2469.713,2021-12-30T13:01:43Z
2021-12-30T11:03:17Z,42.805,6.029,13.2998,4.60019,2469.704,2021-12-30T13:04:46Z
2021-12-30T11:06:20Z,42.805,6.029,13.2996,4.60019,2469.667,2021-12-30T13:07:50Z
2021-12-30T11:09:23Z,42.805,6.029,13.2998,4.60019,2469.704,2021-12-30T13:10:53Z
2021-12-30T11:12:26Z,42.805,6.029,13.3001,4.60020,2469.704,2021-12-30T13:13:56Z
2021-12-30T11:15:29Z,42.805,6.029,13.2998,4.60018,2469.657,2021-12-30T13:16:59Z
2021-12-30T11:18:32Z,42.805,6.029,13.2996,4.60020,2469.69,2021-12-30T13:20:02Z
2021-12-30T11:21:36Z,42.805,6.029,13.2999,4.60020,2469.657,2021-12-30T13:23:05Z
2021-12-30T11:24:39Z,42.805,6.029,13.2998,4.60019,2469.727,2021-12-30T13:26:08Z
2021-12-30T11:27:42Z,42.805,6.029,13.2996,4.60019,2469.69,2021-12-30T13:29:11Z
2021-12-30T11:30:45Z,42.805,6.029,13.2998,4.60018,2469.69,2021-12-30T13:32:15Z
2021-12-30T11:33:48Z,42.805,6.029,13.3000,4.60019,2469.653,2021-12-30T13:35:18Z
2021-12-30T11:36:51Z,42.805,6.029,13.2994,4.60019,2469.667,2021-12-30T13:38:21Z
2021-12-30T11:39:54Z,42.805,6.029,13.2999,4.60019,2469.713,2021-12-30T13:41:24Z
2021-12-30T11:42:57Z,42.805,6.029,13.2995,4.60019,2469.68,2021-12-30T13:44:27Z
2021-12-30T11:46:01Z,42.805,6.029,13.2996,4.60024,2469.704,2021-12-30T13:47:30Z
2021-12-30T11:49:04Z,42.805,6.029,13.2999,4.60019,2469.713,2021-12-30T13:50:33Z
2021-12-30T11:52:07Z,42.805,6.029,13.2999,4.60019,2469.727,2021-12-30T13:53:36Z
2021-12-30T11:55:10Z,42.805,6.029,13.2996,4.60019,2469.75,2021-12-30T13:56:40Z
2021-12-30T11:58:13Z,42.805,6.029,13.2998,4.60021,2469.704,2021-12-30T13:59:43Z
2021-12-30T12:01:16Z,42.805,6.029,13.2998,4.60019,2469.667,2021-12-30T14:02:46Z
2021-12-30T12:04:19Z,42.805,6.029,13.2996,4.60019,2469.727,2021-12-30T14:05:49Z
2021-12-30T12:07:22Z,42.805,6.029,13.2996,4.60020,2469.69,2021-12-30T14:08:52Z
2021-12-30T12:10:26Z,42.805,6.029,13.2997,4.60019,2469.69,2021-12-30T14:11:55Z
2021-12-30T12:13:29Z,42.805,6.029,13.2996,4.60019,2469.69,2021-12-30T14:14:58Z
2021-12-30T12:16:32Z,42.805,6.029,13.2998,4.60021,2469.667,2021-12-30T14:18:02Z
2021-12-30T12:19:35Z,42.805,6.029,13.2996,4.60021,2469.704,2021-12-30T14:21:05Z
2021-12-30T12:22:38Z,42.805,6.029,13.2998,4.60019,2469.69,2021-12-30T14:24:08Z
2021-12-30T12:25:41Z,42.805,6.029,13.2998,4.60020,2469.69,2021-12-30T14:27:11Z
2021-12-30T12:28:44Z,42.805,6.029,13.2996,4.60019,2469.69,2021-12-30T14:30:14Z
2021-12-30T12:31:47Z,42.805,6.029,13.2998,4.60022,2469.727,2021-12-30T14:33:17Z
2021-12-30T12:34:51Z,42.805,6.029,13.2993,4.60019,2469.704,2021-12-30T14:36:20Z
2021-12-30T12:37:54Z,42.805,6.029,13.2998,4.60019,2469.713,2021-12-30T14:39:23Z
2021-12-30T12:40:57Z,42.805,6.029,13.2997,4.60019,2469.69,2021-12-30T14:42:27Z
2021-12-30T12:44:00Z,42.805,6.029,13.2998,4.60019,2469.69,2021-12-30T14:45:30Z
2021-12-30T12:47:03Z,42.805,6.029,13.2998,4.60019,2469.737,2021-12-30T14:48:33Z
2021-12-30T12:50:06Z,42.805,6.029,13.2998,4.60019,2469.713,2021-12-30T14:51:36Z
2021-12-30T12:53:09Z,42.805,6.029,13.2998,4.60019,2469.727,2021-12-30T14:54:39Z
2021-12-30T12:56:12Z,42.805,6.029,13.2997,4.60019,2469.713,2021-12-30T14:57:42Z
2021-12-30T12:59:16Z,42.805,6.029,13.3000,4.60020,2469.704,2021-12-30T15:00:45Z
2021-12-30T13:02:19Z,42.805,6.029,13.3000,4.60019,2469.713,2021-12-30T15:03:48Z
2021-12-30T13:05:22Z,42.805,6.029,13.2998,4.60019,2469.76,2021-12-30T15:06:52Z
2021-12-30T13:08:25Z,42.805,6.029,13.2998,4.60019,2469.75,2021-12-30T15:09:55Z
2021-12-30T13:11:28Z,42.805,6.029,13.2997,4.60022,2469.737,2021-12-30T15:12:58Z
2021-12-30T13:14:31Z,42.805,6.029,13.2996,4.60021,2469.713,2021-12-30T15:16:01Z
2021-12-30T13:17:34Z,42.805,6.029,13.2994,4.60019,2469.727,2021-12-30T15:19:04Z
2021-12-30T13:20:37Z,42.805,6.029,13.2998,4.60019,2469.773,2021-12-30T15:22:07Z
2021-12-30T13:23:41Z,42.805,6.029,13.2996,4.60020,2469.773,2021-12-30T15:25:10Z
2021-12-30T13:26:44Z,42.805,6.029,13.2994,4.60019,2469.737,2021-12-30T15:28:13Z
2021-12-30T13:29:47Z,42.805,6.029,13.2998,4.60019,2469.773,2021-12-30T15:31:17Z
2021-12-30T13:32:50Z,42.805,6.029,13.2996,4.60019,2469.723,2021-12-30T15:34:20Z
2021-12-30T13:35:53Z,42.805,6.029,13.2996,4.60021,2469.773,2021-12-30T15:37:23Z
2021-12-30T13:38:56Z,42.805,6.029,13.2998,4.60019,2469.76,2021-12-30T15:40:26Z
2021-12-30T13:41:59Z,42.805,6.029,13.2996,4.60019,2469.727,2021-12-30T15:43:29Z
2021-12-30T13:45:03Z,42.805,6.029,13.3003,4.60020,2469.76,2021-12-30T15:46:32Z
2021-12-30T13:48:06Z,42.805,6.029,13.2994,4.60019,2469.76,2021-12-30T15:49:35Z
2021-12-30T13:51:09Z,42.805,6.029,13.2995,4.60019,2469.737,2021-12-30T15:52:38Z
2021-12-30T13:54:12Z,42.805,6.029,13.2999,4.60020,2469.773,2021-12-30T15:55:42Z
2021-12-30T13:57:15Z,42.805,6.029,13.2998,4.60019,2469.76,2021-12-30T15:58:45Z
2021-12-30T14:00:18Z,42.805,6.029,13.2996,4.60022,2469.76,2021-12-30T16:01:48Z
2021-12-30T14:03:21Z,42.805,6.029,13.2997,4.60019,2469.737,2021-12-30T16:04:51Z
2021-12-30T14:06:24Z,42.805,6.029,13.2998,4.60020,2469.76,2021-12-30T16:07:54Z
2021-12-30T14:09:28Z,42.805,6.029,13.2996,4.60019,2469.76,2021-12-30T16:10:57Z
2021-12-30T14:12:31Z,42.805,6.029,13.2995,4.60019,2469.797,2021-12-30T16:14:00Z
2021-12-30T14:15:34Z,42.805,6.029,13.2996,4.60019,2469.76,2021-12-30T16:17:04Z
2021-12-30T14:18:37Z,42.805,6.029,13.2994,4.60021,2469.76,2021-12-30T16:20:07Z
2021-12-30T14:21:40Z,42.805,6.029,13.2996,4.60019,2469.76,2021-12-30T16:23:10Z
2021-12-30T14:24:43Z,42.805,6.029,13.2996,4.60019,2469.783,2021-12-30T16:26:13Z
2021-12-30T14:27:46Z,42.805,6.029,13.2997,4.60021,2469.75,2021-12-30T16:29:16Z
2021-12-30T14:30:49Z,42.805,6.029,13.2998,4.60019,2469.76,2021-12-30T16:32:19Z
2021-12-30T14:33:53Z,42.805,6.029,13.3000,4.60019,2469.783,2021-12-30T16:35:22Z
2021-12-30T14:36:56Z,42.805,6.029,13.2998,4.60019,2469.797,2021-12-30T16:38:25Z
2021-12-30T14:39:59Z,42.805,6.029,13.2996,4.60020,2469.76,2021-12-30T16:41:29Z
2021-12-30T14:43:02Z,42.805,6.029,13.2997,4.60019,2469.783,2021-12-30T16:44:32Z
2021-12-30T14:46:05Z,42.805,6.029,13.3001,4.60019,2469.783,2021-12-30T16:47:35Z
2021-12-30T14:49:08Z,42.805,6.029,13.2994,4.60020,2469.76,2021-12-30T16:50:38Z
2021-12-30T14:52:11Z,42.805,6.029,13.2995,4.60019,2469.76,2021-12-30T16:53:41Z
2021-12-30T14:55:15Z,42.805,6.029,13.2996,4.60019,2469.821,2021-12-30T16:56:44Z
2021-12-30T14:58:18Z,42.805,6.029,13.2998,4.60020,2469.797,2021-12-30T16:59:47Z
2021-12-30T15:01:21Z,42.805,6.029,13.3000,4.60019,2469.773,2021-12-30T17:02:50Z